Flag for Germany Weather past 2 weeks in Marburg, Hesse, Germany

Now
78 °F

Overcast.


Feels Like: 80 °F
Forecast: 61 / 80 °F
Wind: 8 mph from Northeast

Location: Giessen

Current Time: Jul 22, 2014 at 9:14:30 PM

Latest Report: Jul 22, 2014 at 7:00 PM


Visibility: 19 mi

Pressure: 29.98 "Hg

Humidity: 54%

Dew point: 61 °F

Location of MarburgLocation

Historic Weather in Marburg — Graph

°F

Marburg temperature yesterday

Maximum temperature yesterday: 75 °F (at 6:00 PM)
Minimum temperature yesterday: 64 °F (at 6:00 AM)
Average temperature yesterday: 69 °F

Past Weeks' High & Low Weather Summary

 TemperatureHumidityPressure
High89 °F (Jul 19, 6:00 PM)99% (Jul 11, 5:00 AM)30.20 "Hg (Jul 11, 5:00 AM)
Low54 °F (Jul 9, 2:00 AM)31% (Jul 18, 7:00 PM)29.67 "Hg (Jul 9, 5:00 PM)
Average68 °F77%29.92 "Hg
* Reported Jul 7 7:00 PM — Jul 22 7:00 PM, Marburg, Weather by CustomWeather, © 2014

Note: Actual official high and low records may vary slightly from our data, if they occured in-between our weather recording intervals... More about our weather records

Advertising

Marburg weather history for previous 24 hours

 ConditionsComfort  
Time TempWeatherWind HumidityBarometerVisibility
7:00 PM
Jul 22
78 °FOvercast.8 mph54%29.98 "Hg19 mi
6:00 PM82 °FScattered clouds.6 mph50%29.96 "Hg22 mi
5:00 PM82 °FScattered clouds.6 mph50%29.96 "Hg22 mi
4:00 PM83 °FScattered clouds.6 mph50%29.97 "Hg22 mi
3:00 PM81 °FWarm.6 mph52%29.97 "Hg25 mi
2:00 PM81 °FPassing clouds.7 mph55%29.97 "Hg25 mi
1:00 PM79 °FPassing clouds.5 mph59%29.97 "Hg17 mi
12:00 PM77 °FSunny.5 mph69%29.97 "Hg19 mi
11:00 AM73 °FOvercast.6 mph72%29.97 "Hg17 mi
10:00 AM70 °FOvercast.6 mph80%29.97 "Hg14 mi
9:00 AM68 °FOvercast.2 mph87%29.96 "Hg9 mi
8:00 AM67 °FOvercast.3 mph88%29.94 "Hg8 mi
7:00 AM67 °FOvercast.5 mph91%29.93 "Hg6 mi
6:00 AM66 °FOvercast.5 mph94%29.93 "Hg4 mi
5:00 AM66 °FRain. Low clouds.5 mph96%29.92 "Hg2 mi
4:00 AM67 °FRain. Low clouds.3 mph93%29.92 "Hg2 mi
3:00 AM69 °FLight rain. Overcast.3 mph86%29.92 "Hg5 mi
2:00 AM68 °FOvercast.2 mph88%29.91 "Hg6 mi
1:00 AM68 °FMild.2 mph87%29.91 "Hg9 mi
12:00 AM68 °FMild.2 mph88%29.91 "Hg10 mi
11:00 PM
Jul 21
68 °FOvercast.2 mph87%29.90 "Hg9 mi
10:00 PM71 °FOvercast.3 mph83%29.89 "Hg13 mi
9:00 PM72 °FOvercast.3 mph78%29.88 "Hg25 mi
Weather by CustomWeather, © 2014

See weather overviewHow to use our weather pages